Weather Roundup
Issued by NWS

Home | Current Version | Previous Version | Text Only | Print | Product List | Glossary On
Versions: 1 2 3 4 5 6 7 8 9 10 11 12 13 14 15 16 17 18 19 20 21 22 23 24 25 26 27 28 29 30 31 32 33 34 35 36 37 38 39 40 41 42 43 44 45 46 47 48 49 50
000
NZUS93 KARX 252210
HRRWXR

CURRENT HOURLY OBSERVATIONS ACROSS
MUCH OF THE UPPER MISSISSIPPI VALLEY
NATIONAL WEATHER SERVICE LA CROSSE WI
500 PM CDT FRI JUL 25 2014


...SOUTHEAST MINNESOTA...


CITY           SKY/WX    TMP DP  RH WIND       PRES   REMARKS
ROCHESTER      MOSUNNY   79  67  66 S10       29.83F
ROCHESTER/MAYO CLOUDY    80  63  56 S10       29.82S
WINONA         PTSUNNY   79  66  65 S3        29.82F
AUSTIN         CLOUDY    79  68  69 S9        29.82R
ALBERT LEA     PTSUNNY   79  66  65 S9        29.81S
DODGE CENTER   MOSUNNY   79  68  69 S8        29.82S
PRESTON        PTSUNNY   77  71  81 SE8       29.84F
OWATONNA       PTSUNNY   81  68  65 S8        29.80F
FARIBAULT      CLOUDY    82  64  54 S9        29.79F
$$

...ELSEWHERE IN MINNESOTA...


CITY           SKY/WX    TMP DP  RH WIND       PRES   REMARKS
MINNEAPOLIS    CLOUDY    80  68  66 S9        29.78S
INTNL FALLS    CLOUDY    74  65  73 SW5       29.74S
DULUTH         CLOUDY    68  63  84 SE10      29.80S
RED WING       CLOUDY    81  66  61 S5        29.78S
REDWOOD FALLS  CLOUDY    83  71  67 S8        29.76S
MANKATO        CLOUDY    79  64  61 S9        29.79S
WORTHINGTON    CLOUDY    79  72  78 W5        29.81S
FAIRMONT       CLOUDY    77  61  57 S10       29.80S
$$

...SOUTHWEST WISCONSIN...


CITY           SKY/WX    TMP DP  RH WIND       PRES   REMARKS
LA CROSSE      SUNNY     77  64  64 SE10      29.84F
PRAIRIE DU CHI CLOUDY    75  63  64 E7        29.85F
BOSCOBEL       CLOUDY    73  63  70 VRB5      29.88F
LONE ROCK      CLOUDY    74  62  66 SE7       29.90S
PLATTEVILLE    CLOUDY    70  64  81 E9        29.90F
FORT MC COY    CLOUDY    73  61  66 S7        29.87F
CAMP DOUGLAS   CLOUDY    70  64  82 S7        29.89F
VIROQUA        CLOUDY    72  64  75 S6        29.88F
WIS DELLS      CLOUDY    70  59  67 S5        29.91S
$$

...ELSEWHERE IN WISCONSIN...


CITY           SKY/WX    TMP DP  RH WIND       PRES   REMARKS
MILWAUKEE      PTSUNNY   75  57  53 SW12      29.93F
MADISON        CLOUDY    71  61  70 S10       29.92F
GREEN BAY      CLOUDY    72  60  66 S14G22    29.89S
EAU CLAIRE     CLOUDY    75  66  73 SE8       29.82F
BLACK RVR FLS  CLOUDY    74  62  67 S6        29.85F
MEDFORD        CLOUDY    67  62  85 S8        29.88F
WAUSAU         CLOUDY    67  61  81 SW8       29.87F
WIS RAPIDS     CLOUDY    70  61  73 SW9       29.90F
MARSHFIELD     CLOUDY    68  62  81 S8        29.88F
RICE LAKE      CLOUDY    71  64  79 SE8       29.84F
$$

...NORTHEAST IOWA...


CITY           SKY/WX    TMP DP  RH WIND       PRES   REMARKS
WATERLOO       CLOUDY    79  66  64 SW13      29.81S
DUBUQUE        CLOUDY    70  65  84 SE9       29.89F
DECORAH        CLOUDY    75  66  73 VRB6G13   29.84F
MASON CITY     CLOUDY    76  68  76 SW8       29.84R
CHARLES CITY   CLOUDY    79  68  69 S8        29.83S
OELWEIN        CLOUDY    77  68  73 S9        29.85S
$$

...ELSEWHERE IN IOWA...


CITY           SKY/WX    TMP DP  RH WIND       PRES   REMARKS
DES MOINES     PTSUNNY   80  68  66 S9        29.79F
IOWA CITY      CLOUDY    75  67  76 S9        29.86S
FORT DODGE     CLOUDY    79  68  69 S10       29.81S
MARSHALLTOWN   CLOUDY    77  69  76 S10       29.81S
CEDAR RAPIDS   CLOUDY    75  66  73 S6        29.84S
$$

...NORTHERN ILLINOIS...


CITY           SKY/WX    TMP DP  RH WIND       PRES   REMARKS
CHICAGO-OHARE  CLOUDY    73  57  57 SW8       29.94S
DUPAGE         CLOUDY    71  60  68 SW8       29.95F
CHICAGO-MIDWAY PTSUNNY   74  59  59 SW10      29.95S
MOLINE         CLOUDY    75  63  66 S6        29.88F
ROCKFORD       CLOUDY    71  60  68 SE12      29.94F
STERLING       CLOUDY    68  61  77 S6        29.93S
PEORIA         SUNNY     74  61  63 S8        29.91R
$$

NOTE: "FAIR" INDICATES FEW OR NO CLOUDS BELOW 12,000 FEET WITH NO
SIGNIFICANT WEATHER AND/OR OBSTRUCTIONS TO VISIBILITY. WIND
SPEEDS ARE IN MILES-PER-HOUR.



USA.gov is the U.S. government's official web portal to all federal, state and local government web resources and services.